PAL211 RPLL-YSSY

Flight info

Callsign PAL211
Flight time N/A
Altitude 33000
Route VERDE2R VERDE A461 SAJ W3 IOO B472 COT/N0497F350 R590 AMN R340 SURVO Y161 NOMEL/N0489F370 Y161 OVNOM H652 BOREE
Aircraft B77W/H-SDE1E2E3FGHIJ2J3J4J5M1RWXY/LB1D1

Departure

Time N/A
Airport Ninoy Aquino International Airport (RPLL)

Arrival

Time 2026-04-21 21:37
Airport Sydney Kingsford Smith International Airport (YSSY)
Time Latitude Longitude Altitude Speed Heading
2026-04-21 20:38 -24.27997 144.35335 37154 ft 465 kts 348°
2026-04-21 20:38 -24.24728 144.35378 37152 ft 478 kts 358°
2026-04-21 20:39 -24.21418 144.36093 37142 ft 490 kts 11°
2026-04-21 20:39 -24.18270 144.37617 37140 ft 504 kts 27°
2026-04-21 20:39 -24.15527 144.40007 37163 ft 519 kts 44°
2026-04-21 20:39 -24.13353 144.43194 37164 ft 529 kts 62°
2026-04-21 20:40 -24.11975 144.46969 37156 ft 534 kts 79°
2026-04-21 20:40 -24.11542 144.51399 37168 ft 532 kts 97°
2026-04-21 20:40 -24.13594 144.58993 37175 ft 516 kts 129°
2026-04-21 20:40 -24.18306 144.64663 37187 ft 504 kts 145°
2026-04-21 20:41 -24.28681 144.75341 37174 ft 521 kts 144°
2026-04-21 20:41 -24.39139 144.86506 37177 ft 528 kts 143°
2026-04-21 20:42 -24.49651 144.97781 37166 ft 522 kts 144°
2026-04-21 20:42 -24.59977 145.08859 37165 ft 514 kts 144°
2026-04-21 20:43 -24.70122 145.19762 37168 ft 512 kts 144°
2026-04-21 20:43 -24.80348 145.30776 37195 ft 519 kts 144°
2026-04-21 20:44 -24.90748 145.42018 37174 ft 524 kts 144°
2026-04-21 20:44 -25.01181 145.53325 37186 ft 524 kts 144°
2026-04-21 20:45 -25.11431 145.64465 37169 ft 514 kts 144°
2026-04-21 20:45 -25.21534 145.75460 37181 ft 510 kts 144°
2026-04-21 20:46 -25.31638 145.86485 37197 ft 512 kts 144°
2026-04-21 20:46 -25.41815 145.97736 37205 ft 520 kts 143°
2026-04-21 20:47 -25.51965 146.09113 37211 ft 523 kts 143°
2026-04-21 20:47 -25.62209 146.20596 37197 ft 523 kts 143°
2026-04-21 20:48 -25.72335 146.31982 37200 ft 513 kts 143°
2026-04-21 20:48 -25.82310 146.43213 37210 ft 508 kts 143°
2026-04-21 20:49 -25.92247 146.54425 37231 ft 510 kts 143°
2026-04-21 20:49 -26.02220 146.65710 37232 ft 518 kts 143°
2026-04-21 20:50 -26.12349 146.77213 37224 ft 521 kts 143°
2026-04-21 20:50 -26.22469 146.88739 37208 ft 515 kts 143°
2026-04-21 20:51 -26.32391 147.00062 37222 ft 508 kts 143°
2026-04-21 20:51 -26.42183 147.11258 37230 ft 507 kts 143°
2026-04-21 20:52 -26.52119 147.22644 37240 ft 515 kts 143°
2026-04-21 20:52 -26.62179 147.34217 37221 ft 521 kts 143°
2026-04-21 20:53 -26.72204 147.45785 37227 ft 519 kts 143°
2026-04-21 20:53 -26.82145 147.57288 37257 ft 509 kts 143°
2026-04-21 20:54 -26.91989 147.68693 37201 ft 507 kts 143°
2026-04-21 20:54 -27.01796 147.80089 37264 ft 510 kts 143°
2026-04-21 20:55 -27.11744 147.91679 37243 ft 519 kts 143°
2026-04-21 20:55 -27.21789 148.03432 37256 ft 520 kts 143°
2026-04-21 20:56 -27.31721 148.14892 37237 ft 504 kts 148°
2026-04-21 20:56 -27.37262 148.19533 37242 ft 488 kts 158°
2026-04-21 20:56 -27.43165 148.23124 37230 ft 480 kts 162°
2026-04-21 20:57 -27.55029 148.30040 37245 ft 479 kts 162°
2026-04-21 20:57 -27.66797 148.37035 37246 ft 481 kts 162°
2026-04-21 20:58 -27.78717 148.44143 37245 ft 484 kts 161°
2026-04-21 20:58 -27.90583 148.51235 37244 ft 486 kts 161°
2026-04-21 20:59 -28.02576 148.58435 37246 ft 489 kts 160°
2026-04-21 20:59 -28.08285 148.62813 37243 ft 503 kts 150°
2026-04-21 20:59 -28.13700 148.67842 37257 ft 505 kts 149°
2026-04-21 21:00 -28.24587 148.77991 37254 ft 505 kts 150°
2026-04-21 21:00 -28.35490 148.88049 37239 ft 504 kts 150°
2026-04-21 21:01 -28.46306 148.98059 37247 ft 504 kts 149°
2026-04-21 21:01 -28.57173 149.08148 37248 ft 503 kts 149°
2026-04-21 21:02 -28.67995 149.18221 37249 ft 502 kts 149°
2026-04-21 21:02 -28.78747 149.28257 37256 ft 502 kts 149°
2026-04-21 21:03 -28.89544 149.38363 37260 ft 501 kts 149°
2026-04-21 21:03 -29.00329 149.48475 37266 ft 500 kts 148°
2026-04-21 21:04 -29.11083 149.58585 37264 ft 500 kts 148°
2026-04-21 21:04 -29.21737 149.68631 37265 ft 498 kts 148°
2026-04-21 21:05 -29.32423 149.78735 37270 ft 497 kts 148°
2026-04-21 21:05 -29.43067 149.88828 37277 ft 495 kts 148°
2026-04-21 21:06 -29.53670 149.98911 37273 ft 494 kts 148°
2026-04-21 21:06 -29.64361 150.08552 37271 ft 481 kts 158°
2026-04-21 21:07 -29.70377 150.11676 37287 ft 467 kts 169°
2026-04-21 21:07 -29.76609 150.13579 37280 ft 463 kts 173°
2026-04-21 21:07 -29.89115 150.17212 37284 ft 463 kts 172°
2026-04-21 21:08 -30.01596 150.20962 37299 ft 463 kts 172°
2026-04-21 21:08 -30.13984 150.24701 37305 ft 463 kts 172°
2026-04-21 21:09 -30.26541 150.28499 37314 ft 463 kts 172°
2026-04-21 21:09 -30.38930 150.32255 37313 ft 463 kts 172°
2026-04-21 21:10 -30.51424 150.36054 37313 ft 463 kts 172°
2026-04-21 21:10 -30.63875 150.39850 37343 ft 463 kts 172°
2026-04-21 21:11 -30.76338 150.43660 37331 ft 463 kts 172°
2026-04-21 21:11 -30.88824 150.47485 37342 ft 463 kts 172°
2026-04-21 21:12 -31.01215 150.51288 37320 ft 463 kts 172°
2026-04-21 21:12 -31.13704 150.55133 37322 ft 463 kts 172°
2026-04-21 21:13 -31.26181 150.58986 37318 ft 463 kts 172°
2026-04-21 21:13 -31.38575 150.62823 37331 ft 463 kts 172°
2026-04-21 21:14 -31.51125 150.66719 37330 ft 463 kts 172°
2026-04-21 21:14 -31.63472 150.70563 37346 ft 463 kts 171°
2026-04-21 21:15 -31.75936 150.74454 37351 ft 462 kts 171°
2026-04-21 21:15 -31.88325 150.78333 37351 ft 462 kts 171°
2026-04-21 21:16 -32.00752 150.82234 37348 ft 462 kts 171°
2026-04-21 21:16 -32.13204 150.84841 36459 ft 444 kts 177°
2026-04-21 21:17 -32.19363 150.85867 34648 ft 448 kts 176°
2026-04-21 21:17 -32.25452 150.86919 33378 ft 442 kts 175°
2026-04-21 21:17 -32.31604 150.87991 32104 ft 450 kts 175°
2026-04-21 21:17 -32.35053 150.88594 31438 ft 455 kts 175°
2026-04-21 21:18 -32.38198 150.89145 30837 ft 456 kts 175°
2026-04-21 21:18 -32.41343 150.89698 30212 ft 453 kts 174°
2026-04-21 21:18 -32.44447 150.90244 29525 ft 450 kts 174°
2026-04-21 21:18 -32.47531 150.90785 28854 ft 445 kts 174°
2026-04-21 21:19 -32.50529 150.91312 28201 ft 439 kts 174°
2026-04-21 21:19 -32.53545 150.91849 27557 ft 433 kts 174°
2026-04-21 21:19 -32.56510 150.92383 26977 ft 426 kts 174°
2026-04-21 21:19 -32.59429 150.92910 26475 ft 418 kts 174°
2026-04-21 21:20 -32.62246 150.93418 26000 ft 412 kts 174°
2026-04-21 21:20 -32.65076 150.93927 25515 ft 410 kts 173°
2026-04-21 21:20 -32.67894 150.94434 25054 ft 411 kts 173°
2026-04-21 21:20 -32.70739 150.94945 24590 ft 412 kts 173°
2026-04-21 21:21 -32.73571 150.95456 24132 ft 410 kts 173°
2026-04-21 21:21 -32.76379 150.95963 23636 ft 408 kts 173°
2026-04-21 21:21 -32.79155 150.96463 23109 ft 405 kts 173°
2026-04-21 21:21 -32.81934 150.96960 22585 ft 403 kts 173°
2026-04-21 21:22 -32.84707 150.97451 22066 ft 400 kts 173°
2026-04-21 21:22 -32.87462 150.97939 21550 ft 397 kts 173°
2026-04-21 21:22 -32.90186 150.98421 21055 ft 395 kts 173°
2026-04-21 21:22 -32.92901 150.98903 20566 ft 392 kts 173°
2026-04-21 21:23 -32.95589 150.99381 20060 ft 390 kts 172°
2026-04-21 21:23 -32.98242 150.99853 19475 ft 390 kts 172°
2026-04-21 21:23 -33.00919 151.00329 18897 ft 388 kts 172°
2026-04-21 21:23 -33.03576 151.00803 18275 ft 384 kts 172°
2026-04-21 21:24 -33.06213 151.01273 17613 ft 382 kts 172°
2026-04-21 21:24 -33.08835 151.01741 16966 ft 379 kts 172°
2026-04-21 21:24 -33.10556 151.02048 16553 ft 377 kts 172°
2026-04-21 21:24 -33.13138 151.02509 15931 ft 374 kts 171°
2026-04-21 21:25 -33.15704 151.02968 15324 ft 372 kts 171°
2026-04-21 21:25 -33.18257 151.03425 14736 ft 370 kts 171°
2026-04-21 21:25 -33.20803 151.03880 14143 ft 369 kts 171°
2026-04-21 21:25 -33.23342 151.04335 13493 ft 367 kts 171°
2026-04-21 21:26 -33.25852 151.04799 12842 ft 365 kts 170°
2026-04-21 21:26 -33.28367 151.05283 12223 ft 364 kts 170°
2026-04-21 21:26 -33.30871 151.05767 11598 ft 362 kts 170°
2026-04-21 21:26 -33.33356 151.06245 10993 ft 361 kts 170°
2026-04-21 21:27 -33.35829 151.06718 10401 ft 359 kts 170°
2026-04-21 21:27 -33.38268 151.07185 9771 ft 358 kts 170°
2026-04-21 21:27 -33.40723 151.07656 9128 ft 356 kts 170°
2026-04-21 21:27 -33.43191 151.08129 8487 ft 355 kts 170°
2026-04-21 21:28 -33.45574 151.08587 7859 ft 340 kts 169°
2026-04-21 21:28 -33.47815 151.09016 7220 ft 314 kts 169°
2026-04-21 21:28 -33.51870 151.09794 5953 ft 279 kts 169°
2026-04-21 21:29 -33.53747 151.10157 5307 ft 266 kts 169°
2026-04-21 21:29 -33.55535 151.10503 4680 ft 257 kts 169°
2026-04-21 21:29 -33.57279 151.10778 4046 ft 250 kts 174°
2026-04-21 21:29 -33.58996 151.10921 3426 ft 244 kts 175°
2026-04-21 21:30 -33.60631 151.11042 3161 ft 224 kts 175°
2026-04-21 21:30 -33.62115 151.11149 2986 ft 202 kts 176°
2026-04-21 21:30 -33.63497 151.11251 3004 ft 206 kts 175°
2026-04-21 21:30 -33.64933 151.11367 3008 ft 204 kts 175°
2026-04-21 21:31 -33.66310 151.11466 2986 ft 192 kts 175°
2026-04-21 21:31 -33.67619 151.11552 2985 ft 189 kts 176°
2026-04-21 21:31 -33.68934 151.11640 3013 ft 194 kts 175°
2026-04-21 21:31 -33.70300 151.11732 3001 ft 197 kts 176°
2026-04-21 21:32 -33.71663 151.11838 2997 ft 195 kts 174°
2026-04-21 21:32 -33.72999 151.12049 3010 ft 192 kts 169°
2026-04-21 21:32 -33.74311 151.12345 2992 ft 190 kts 168°
2026-04-21 21:32 -33.75607 151.12669 3046 ft 189 kts 167°
2026-04-21 21:33 -33.76871 151.12993 2992 ft 180 kts 167°
2026-04-21 21:33 -33.78069 151.13303 2998 ft 177 kts 167°
2026-04-21 21:33 -33.79302 151.13623 2776 ft 178 kts 167°
2026-04-21 21:33 -33.80490 151.13931 2548 ft 173 kts 167°
2026-04-21 21:34 -33.81660 151.14235 2312 ft 172 kts 167°
2026-04-21 21:34 -33.82810 151.14533 2080 ft 167 kts 168°
2026-04-21 21:34 -33.83905 151.14816 1844 ft 155 kts 168°
2026-04-21 21:34 -33.84949 151.15089 1670 ft 152 kts 168°
2026-04-21 21:35 -33.85974 151.15354 1444 ft 146 kts 169°
2026-04-21 21:35 -33.86921 151.15599 1233 ft 132 kts 168°
2026-04-21 21:35 -33.87800 151.15827 1084 ft 129 kts 168°
2026-04-21 21:35 -33.88675 151.16054 914 ft 129 kts 168°
2026-04-21 21:36 -33.89551 151.16281 723 ft 130 kts 167°
2026-04-21 21:36 -33.90440 151.16515 563 ft 132 kts 168°
2026-04-21 21:36 -33.91344 151.16759 355 ft 135 kts 167°
2026-04-21 21:36 -33.92234 151.16979 201 ft 131 kts 167°
2026-04-21 21:37 -33.93118 151.17205 52 ft 130 kts 167°
2026-04-21 21:37 -33.93945 151.17421 32 ft 106 kts 168°
2026-04-21 21:37 -33.94517 151.17571 35 ft 61 kts 168°
2026-04-21 21:37 -33.94860 151.17650 34 ft 40 kts 175°
2026-04-21 21:38 -33.95071 151.17632 33 ft 24 kts 192°
2026-04-21 21:38 -33.95145 151.17560 34 ft 15 kts 275°
2026-04-21 21:38 -33.95061 151.17507 34 ft 15 kts 348°
2026-04-21 21:38 -33.94961 151.17482 34 ft 15 kts 348°
2026-04-21 21:39 -33.94860 151.17456 34 ft 15 kts 348°
2026-04-21 21:39 -33.94759 151.17429 35 ft 11 kts 348°
2026-04-21 21:39 -33.94685 151.17410 35 ft 11 kts 348°
2026-04-21 21:39 -33.94607 151.17389 35 ft 12 kts 348°
2026-04-21 21:40 -33.94521 151.17367 35 ft 13 kts 348°
2026-04-21 21:40 -33.94427 151.17343 35 ft 14 kts 348°
2026-04-21 21:40 -33.94326 151.17317 35 ft 16 kts 348°
2026-04-21 21:40 -33.94215 151.17288 34 ft 17 kts 348°
2026-04-21 21:41 -33.94092 151.17256 34 ft 18 kts 347°
2026-04-21 21:41 -33.93968 151.17224 34 ft 18 kts 348°
2026-04-21 21:41 -33.93863 151.17197 34 ft 15 kts 347°
2026-04-21 21:41 -33.93763 151.17172 34 ft 12 kts 348°
2026-04-21 21:42 -33.93712 151.17120 34 ft 10 kts 288°
2026-04-21 21:42 -33.93709 151.17044 35 ft 4 kts 265°
2026-04-21 21:42 -33.93716 151.17006 35 ft 5 kts 255°
2026-04-21 21:42 -33.93725 151.16966 35 ft 3 kts 255°
2026-04-21 21:43 -33.93729 151.16946 35 ft 2 kts 255°
2026-04-21 21:43 -33.93731 151.16939 35 ft 0 kts 255°